Overview Statistics Trail Chart Weather Telemetry Raw packets
 

This is the latest recevied weather packets stored in our database for station/object VE8SKI. If no packets are shown the sender has not sent any weather packets the latest 10 day(s).

<< 51 52 53 54 55 56 57 >>
Time Temp. Humidity Pressure Rain* Wind** Luminosity Snow
1777762609 6.67° C 58% 1007.1 hPa 0 mm 1.34 m/s, 91° - -
1777762307 6.67° C 57% 1007.1 hPa 0 mm 2.68 m/s, 93° - -
1777762007 6.67° C 57% 1007.1 hPa 0 mm 2.24 m/s, 93° - -
1777761708 6.67° C 57% 1007.1 hPa 0 mm 2.24 m/s, 82° - -
1777761408 6.67° C 58% 1007.2 hPa 0 mm 1.79 m/s, 124° - -
1777761109 6.11° C 58% 1007.2 hPa 0 mm 2.24 m/s, 148° - -
1777760809 6.11° C 59% 1007.2 hPa 0 mm 2.24 m/s, 115° - -
1777760507 6.11° C 59% 1007.3 hPa 0 mm 2.24 m/s, 107° - -
1777760207 5.56° C 60% 1007.3 hPa 0 mm 2.68 m/s, 103° - -
1777759908 6.11° C 59% 1007.4 hPa 0 mm 2.24 m/s, 125° - -
1777759608 5.56° C 60% 1007.4 hPa 0 mm 2.68 m/s, 135° - -
1777759308 6.11° C 59% 1007.4 hPa 0 mm 2.68 m/s, 187° - -
1777759009 6.11° C 60% 1007.5 hPa 0 mm 2.24 m/s, 139° - -
1777758707 6.11° C 60% 1007.6 hPa 0 mm 2.68 m/s, 159° - -
1777758407 6.11° C 60% 1007.8 hPa 0 mm 2.24 m/s, 156° - -
1777758107 6.11° C 59% 1007.8 hPa 0 mm 2.24 m/s, 245° - -
1777757808 6.11° C 60% 1007.8 hPa 0 mm 1.34 m/s, 156° - -
1777757508 6.11° C 59% 1007.9 hPa 0 mm 3.13 m/s, 108° - -
1777757209 6.11° C 59% 1008 hPa 0 mm 2.24 m/s, 135° - -
1777756906 6.11° C 59% 1008 hPa 0 mm 2.24 m/s, 229° - -
1777756607 6.11° C 59% 1008 hPa 0 mm 2.24 m/s, 155° - -
1777756308 6.11° C 59% 1008.1 hPa 0 mm 2.24 m/s, 100° - -
1777756008 6.11° C 59% 1008.1 hPa 0 mm 1.34 m/s, 226° - -
1777755708 6.67° C 58% 1008.2 hPa 0 mm 1.79 m/s, 141° - -
1777755409 6.11° C 59% 1008.3 hPa 0 mm 2.24 m/s, 150° - -

* Rain latest hour (hover to see other rain measurements)
** Current wind speed in m/s (hover to see current wind gust speed)